changsha , China , ASIA

  • Sunday
    September 23

    Moderate rain  Overcast

    75 °F  68 °F

    North  Northwest

        

  • Monday
    September 24

    Cloudy  Cloudy

    82 °F  70 °F

    Northwest  Northwest

        

  • Tuesday
    September 25

    Light rain  Overcast

    75 °F  68 °F

    Northeast  North

        

  • Wednesday
    September 26

    Cloudy  Cloudy

    73 °F  66 °F

    North  North

        

  • Thursday
    September 27

    Cloudy  Sunny

    79 °F  68 °F

    North  North

        

  • Friday
    September 28

    Sunny  Sunny

    77 °F  68 °F

    North  North

    3~4L   3~4L 

  • Saturday
    September 29

    Sunny  Sunny

    79 °F  68 °F

    North  North

    3~4L   3~4L 

Date   Weather Temperature Humidity Total_rain Visibility Wind
11:00 Moderate rain 72°F 86.5% 3.7mm 999.9km Northwest  1.7m/s
14:00 Moderate rain 74°F 84.5% 4.5mm 999.9km Northeast  2.9m/s
17:00 Light rain 75°F 88.3% 1.8mm 999.9km Northeast  2.9m/s
20:00 Cloudy 73°F 91.4% 0mm 999.9km Northeast  2.1m/s
23:00 Overcast 68°F 93.2% 0mm 999.9km Northeast  1.5m/s
02:00 Overcast 69°F 97.6% 0mm 999.9km Northeast  1.0m/s
05:00 Overcast 70°F 98% 0mm 999.9km Northeast  1.2m/s
08:00 Overcast 70°F 95.1% 0mm 999.9km Northeast  1.8m/s
11:00 Cloudy 78°F 80.6% 0mm 999.9km Northeast  1.4m/s
14:00 Cloudy 82°F 85.2% 0mm 999.9km Northeast  1.8m/s
17:00 Cloudy 80°F 88.1% 0mm 999.9km Northwest  2.5m/s
20:00 Cloudy 77°F 91.3% 0mm 999.9km Northeast  2.0m/s
23:00 Cloudy 72°F 91.9% 0mm 999.9km Northeast  1.7m/s
02:00 Cloudy 70°F 95.5% 0mm 999.9km Northeast  1.7m/s
05:00 Cloudy 72°F 97.3% 0mm 999.9km Northeast  1.5m/s
08:00 Cloudy 73°F 95% 0mm 999.9km Northeast  1.7m/s
11:00 Light rain 73°F 82.8% 0.2mm 999.9km Northeast  2.6m/s
14:00 Light rain 75°F 82.9% 0.3mm 999.9km Northeast  2.6m/s
17:00 Light rain 73°F 83.9% 0.6mm 999.9km Northeast  2.5m/s
20:00 Light rain 70°F 85.6% 0.1mm 999.9km Northeast  2.5m/s
23:00 Overcast 69°F 89.1% 0mm 999.9km Northeast  2.2m/s
02:00 Overcast 69°F 92.4% 0mm 999.9km Northeast  2.9m/s
05:00 Overcast 69°F 93.9% 0mm 999.9km Northeast  2.0m/s
08:00 Overcast 68°F 92.7% 0mm 999.9km Northeast  1.7m/s
11:00 Cloudy 70°F 61.2% 0mm 999.9km Northeast  1.4m/s
14:00 Cloudy 73°F 69.7% 0mm 999.9km Northeast  2.3m/s
17:00 Cloudy 72°F 71.2% 0mm 999.9km Northeast  2.9m/s
20:00 Cloudy 69°F 81.6% 0mm 999.9km Northeast  2.2m/s
23:00 Cloudy 67°F 86.2% 0mm 999.9km Northeast  2.4m/s
02:00 Cloudy 67°F 93.4% 0mm 999.9km Northeast  1.6m/s
05:00 Cloudy 67°F 95.9% 0mm 999.9km Northeast  2.0m/s
08:00 Cloudy 67°F 91.9% 0mm 999.9km Northeast  1.8m/s
11:00 Cloudy 76°F 75.8% 0mm 999.9km Northeast  1.9m/s
14:00 Cloudy 78°F 79.5% 0mm 999.9km Northeast  1.6m/s
17:00 Cloudy 75°F 79.9% 0mm 999.9km Northeast  2.7m/s
20:00 Cloudy 73°F 86.3% 0mm 999.9km Northeast  1.7m/s
23:00 Sunny 69°F 95.1% 0mm 999.9km Northwest  2.6m/s
02:00 Sunny 69°F 91.6% 0mm 999.9km Northeast  2.1m/s
05:00 Sunny 68°F 91.3% 0mm 999.9km Northwest  1.9m/s
08:00 Sunny 71°F 91% 0mm 999.9km Northeast  2.0m/s
11:00 Sunny 72°F 68.7% 0mm 999.9km Northwest  2.8m/s
14:00 Sunny 77°F 73% 0mm 999.9km Northeast  3.0m/s
17:00 Sunny 75°F 78.4% 0mm 999.9km Northeast  2.9m/s
20:00 Sunny 73°F 81.5% 0mm 999.9km Northwest  3.0m/s
23:00 Sunny 72°F 88.3% 0mm 999.9km Northwest  2.3m/s
02:00 Sunny 70°F 88.9% 0mm 999.9km Northwest  3.0m/s
05:00 Sunny 68°F 95.3% 0mm 999.9km Northwest  2.2m/s
08:00 Sunny 70°F 88.8% 0mm 999.9km Northeast  2.2m/s
11:00 Sunny 73°F 75.1% 0mm 999.9km Northwest  2.4m/s
14:00 Sunny 78°F 80.6% 0mm 999.9km Northeast  3.6m/s
17:00 Sunny 76°F 79.7% 0mm 999.9km Northwest  3.8m/s
20:00 Sunny 74°F 84.4% 0mm 999.9km Northeast  2.5m/s
23:00 Sunny 70°F 89.5% 0mm 999.9km Northwest  1.9m/s
02:00 Sunny 68°F 92.9% 0mm 999.9km Northeast  2.2m/s
05:00 Sunny 71°F 89% 0mm 999.9km Northeast  1.9m/s